Le nostre stazioni meteo in Italia

Pubblicità
Il mio iltempo24.it
Alghero, Italia (16520): Temperatura & dewpoint: 11.02.2019 13:00:00 - 17.02.2019 13:00:00 (CET)Alghero, Italia (16520): velocità del vento: 11.02.2019 13:00:00 - 17.02.2019 13:00:00 (CET)Alghero, Italia (16520): direzione del vento: 11.02.2019 13:00:00 - 17.02.2019 13:00:00 (CET)Alghero, Italia (16520): reduced air pressure: 11.02.2019 13:00:00 - 17.02.2019 13:00:00 (CET)Alghero, Italia (16520): visibility: 11.02.2019 13:00:00 - 17.02.2019 13:00:00 (CET)Alghero, Italia (16520): precipitazioni: 11.02.2019 13:00:00 - 17.02.2019 13:00:00 (CET)
Data & Tempo tt [°C] td [°C] ff [km/h] ff [kn] dd ppp [hPa] vv [km] rr [mm]
17.02.2019 13:00:00 16,0 4,7 8 4 E 1029,2 10 -
17.02.2019 12:00:00 15,0 6,0 8 4 ENE - 10 -
17.02.2019 11:00:00 - - - - - - - -
17.02.2019 10:00:00 9,7 8,5 4 2 - 1030,6 10 0,0
17.02.2019 09:00:00 5,0 5,0 4 2 NNE - 10 -
17.02.2019 08:00:00 2,0 2,0 5 3 NE - 10 -
17.02.2019 07:00:00 2,1 1,7 4 2 N 1030,3 10 -
17.02.2019 06:00:00 3,0 2,0 4 2 NNE - 10 -
17.02.2019 05:00:00 2,0 2,0 2 1 - - 10 -
17.02.2019 04:00:00 2,5 2,0 4 2 NNE 1030,0 10 0,0
17.02.2019 03:00:00 3,0 3,0 4 2 NNE - 10 -
17.02.2019 02:00:00 3,0 3,0 4 2 ENE - 8 -
17.02.2019 01:00:00 3,7 3,2 4 2 - 1030,5 7 -
17.02.2019 00:00:00 4,0 4,0 2 1 ENE - 10 -
16.02.2019 23:00:00 5,0 5,0 5 3 NNE - 10 -
16.02.2019 22:00:00 5,5 4,8 4 2 ONO 1030,8 10 0,0
16.02.2019 21:00:00 8,0 7,0 2 1 - - 10 -
16.02.2019 20:00:00 8,0 7,0 2 1 - - 10 -
16.02.2019 19:00:00 10,6 8,8 2 1 - 1030,4 10 -
16.02.2019 18:00:00 12,0 9,0 11 6 SSO - 10 -
16.02.2019 17:00:00 14,0 9,0 15 8 SSO - 10 -
16.02.2019 16:00:00 14,8 8,5 18 10 SSO 1030,0 10 0,0
16.02.2019 15:00:00 15,0 7,0 18 10 SSO - 10 -
16.02.2019 14:00:00 16,0 7,0 18 10 SSO - 10 -
16.02.2019 13:00:00 16,3 5,3 18 10 SO 1030,8 10 -
16.02.2019 12:00:00 16,0 4,0 9 5 SO - 10 -
16.02.2019 11:00:00 15,0 6,0 9 5 E - 10 -
16.02.2019 10:00:00 13,4 6,7 8 4 ENE 1030,2 10 0,0
16.02.2019 09:00:00 10,0 6,0 5 3 NNE - 10 -
16.02.2019 08:00:00 7,0 5,0 16 9 NE - 10 -
16.02.2019 07:00:00 6,1 4,3 8 4 NNE 1029,1 10 -
16.02.2019 06:00:00 8,0 5,0 13 7 N - 10 -
16.02.2019 05:00:00 6,0 5,0 8 4 NNO - 10 -
16.02.2019 04:00:00 5,7 5,2 11 6 NE 1028,4 10 0,0
16.02.2019 03:00:00 5,0 4,0 2 1 - - 10 -
16.02.2019 02:00:00 5,0 5,0 4 2 - - 10 -
16.02.2019 01:00:00 5,9 5,4 8 4 NNE 1028,7 10 -
16.02.2019 00:00:00 6,0 6,0 13 7 NE - 10 -
15.02.2019 23:00:00 6,0 5,0 8 4 NNE - 10 -
15.02.2019 22:00:00 7,3 6,8 5 3 NE 1028,9 10 0,0
15.02.2019 21:00:00 9,0 8,0 8 4 NNE - 10 -
15.02.2019 20:00:00 10,0 9,0 5 3 NNE - 10 -
15.02.2019 19:00:00 10,2 8,8 8 4 NE 1028,6 10 -
15.02.2019 18:00:00 12,0 9,0 15 8 NE - 10 -
15.02.2019 17:00:00 14,0 9,0 18 10 NNE - 10 -
15.02.2019 16:00:00 14,8 8,9 24 13 NNE 1028,2 10 0,0
15.02.2019 15:00:00 16,0 9,0 22 12 NNE - 10 -
15.02.2019 14:00:00 16,0 8,0 21 11 NNE - 10 -
15.02.2019 13:00:00 15,7 7,5 16 9 NE 1029,8 10 -
15.02.2019 12:00:00 15,0 9,0 15 8 NE - 10 -
15.02.2019 11:00:00 13,0 8,0 13 7 NNE - 10 -
15.02.2019 10:00:00 11,2 5,7 8 4 NNE 1031,0 10 0,0
15.02.2019 09:00:00 5,0 2,0 4 2 - - 10 -
15.02.2019 08:00:00 1,0 -1,0 4 2 - - 10 -
15.02.2019 07:00:00 1,2 -0,6 2 1 - 1031,2 10 -
15.02.2019 06:00:00 1,0 -2,0 4 2 - - 10 -
15.02.2019 05:00:00 1,0 -2,0 5 3 NNE - 10 -
15.02.2019 04:00:00 1,3 -0,1 2 1 - 1031,6 10 0,0
15.02.2019 03:00:00 1,0 0,0 2 1 - - 10 -
15.02.2019 02:00:00 3,0 2,0 4 2 N - 10 -
15.02.2019 01:00:00 2,8 2,2 2 1 - 1032,7 10 -
15.02.2019 00:00:00 4,0 4,0 4 2 NNE - 10 -
14.02.2019 23:00:00 4,0 4,0 2 1 E - 10 -
14.02.2019 22:00:00 5,6 4,4 2 1 - 1032,7 10 0,0
14.02.2019 21:00:00 7,0 6,0 4 2 - - 10 -
14.02.2019 20:00:00 7,0 4,0 4 2 - - 10 -
14.02.2019 19:00:00 8,8 4,0 2 1 - 1033,0 10 -
14.02.2019 18:00:00 13,0 4,0 8 4 N - 10 -
14.02.2019 17:00:00 15,0 4,0 15 8 NNE - 10 -
14.02.2019 16:00:00 15,7 2,7 18 10 NE 1033,0 10 0,0
14.02.2019 15:00:00 17,0 0,0 18 10 NNE - 10 -
14.02.2019 14:00:00 17,0 3,0 15 8 N - 10 -
14.02.2019 13:00:00 15,8 5,0 16 9 NNE 1034,2 10 -
14.02.2019 12:00:00 15,0 8,0 16 9 NE - 10 -
14.02.2019 11:00:00 13,0 9,0 13 7 NE - 10 -
14.02.2019 10:00:00 11,0 6,4 9 5 NNE 1034,9 10 0,0
14.02.2019 09:00:00 7,0 3,0 9 5 NNE - 10 -
14.02.2019 08:00:00 3,0 0,0 8 4 N - 10 -
14.02.2019 07:00:00 1,8 -0,3 11 6 NE 1034,2 10 -
14.02.2019 06:00:00 3,0 0,0 8 4 ENE - 10 -
14.02.2019 05:00:00 3,0 1,0 9 5 NNE - 10 -
14.02.2019 04:00:00 4,1 1,9 4 2 - 1034,3 10 0,0
14.02.2019 03:00:00 5,0 4,0 8 4 N - 10 -
14.02.2019 02:00:00 5,0 3,0 9 5 NNE - 10 -
14.02.2019 01:00:00 4,9 4,0 8 4 NNE 1035,0 10 -
14.02.2019 00:00:00 4,0 3,0 4 2 - - 10 -
13.02.2019 23:00:00 5,0 4,0 4 2 N - 10 -
13.02.2019 22:00:00 6,9 5,8 5 3 N 1034,7 10 0,0
13.02.2019 21:00:00 7,0 6,0 5 3 NE - 10 -
13.02.2019 20:00:00 8,0 5,0 5 3 N - 10 -
13.02.2019 19:00:00 9,5 6,1 8 4 N 1033,9 10 -
13.02.2019 18:00:00 12,0 7,0 8 4 N - 10 -
13.02.2019 17:00:00 14,0 8,0 9 5 N - 10 -
13.02.2019 16:00:00 14,5 7,9 11 6 ONO 1032,9 10 0,0
13.02.2019 15:00:00 15,0 9,0 11 6 ONO - 10 -
13.02.2019 14:00:00 15,0 8,0 5 3 - - 10 -
13.02.2019 13:00:00 14,8 7,3 4 2 - 1033,7 10 -
13.02.2019 12:00:00 14,0 8,0 4 2 - - 10 -
13.02.2019 11:00:00 12,0 8,0 5 3 E - 10 -
13.02.2019 10:00:00 9,8 7,4 4 2 - 1033,5 10 0,0
13.02.2019 09:00:00 5,0 4,0 4 2 - - 10 -
13.02.2019 08:00:00 2,0 1,0 5 3 NNE - 10 -
13.02.2019 07:00:00 1,8 1,2 5 3 NE 1031,5 10 -
13.02.2019 06:00:00 - - - - - - - -
13.02.2019 05:00:00 1,0 0,0 2 1 - - 10 -
13.02.2019 04:00:00 0,8 0,1 4 2 - 1030,7 10 0,0
13.02.2019 03:00:00 2,0 2,0 2 1 - - 10 -
13.02.2019 02:00:00 2,0 2,0 4 2 - - 10 -
13.02.2019 01:00:00 2,7 2,0 2 1 - 1030,3 10 -
13.02.2019 00:00:00 3,0 2,0 4 2 - - 10 -
12.02.2019 23:00:00 5,0 3,0 2 1 - - 10 -
12.02.2019 22:00:00 6,1 4,3 5 3 NNE 1029,8 10 0,0
12.02.2019 21:00:00 5,0 3,0 4 2 - - 10 -
12.02.2019 20:00:00 7,0 4,0 2 1 - - 10 -
12.02.2019 19:00:00 9,7 5,0 5 3 OSO 1028,4 10 -
12.02.2019 18:00:00 12,0 5,0 8 4 O - 10 -
12.02.2019 17:00:00 13,0 6,0 15 8 ONO - 10 -
12.02.2019 16:00:00 14,5 3,8 13 7 NNO 1027,0 10 0,0
12.02.2019 15:00:00 15,0 1,0 16 9 N - 10 -
12.02.2019 14:00:00 15,0 -4,0 16 9 NNE - 10 -
12.02.2019 13:00:00 15,0 -1,8 16 9 NE 1027,1 10 -
12.02.2019 12:00:00 15,0 0,0 11 6 NNE - 10 -
12.02.2019 11:00:00 14,0 1,0 16 9 N - 10 -
12.02.2019 10:00:00 12,0 4,9 8 4 ENE 1026,7 10 0,0
12.02.2019 09:00:00 10,0 2,0 13 7 NE - 10 -
12.02.2019 08:00:00 2,0 2,0 4 2 - - 10 -
12.02.2019 07:00:00 1,1 -0,1 2 1 - 1024,2 10 -
12.02.2019 06:00:00 4,0 2,0 4 2 - - 10 -
12.02.2019 05:00:00 3,0 2,0 4 2 - - 10 -
12.02.2019 04:00:00 3,3 1,6 2 1 - 1023,5 10 0,0
12.02.2019 03:00:00 5,0 2,0 8 4 ESE - 10 -
12.02.2019 02:00:00 6,0 2,0 4 2 - - 10 -
12.02.2019 01:00:00 9,1 3,6 5 3 ONO 1022,5 10 -
12.02.2019 00:00:00 10,0 3,0 4 2 - - 10 -
11.02.2019 23:00:00 11,0 2,0 11 6 NNO - 10 -
11.02.2019 22:00:00 11,4 3,1 16 9 NO 1021,2 10 0,0
11.02.2019 21:00:00 12,0 2,0 21 11 NNO - 10 -
11.02.2019 20:00:00 12,0 1,0 28 15 NO - 10 -
11.02.2019 19:00:00 11,4 2,0 26 14 NO 1020,4 10 -
11.02.2019 18:00:00 11,0 2,0 26 14 NO - 10 -
11.02.2019 17:00:00 12,0 3,0 29 16 NO - 10 -
11.02.2019 16:00:00 12,4 2,2 28 15 NO 1018,8 10 0,0
11.02.2019 15:00:00 13,0 3,0 31 17 NO - 10 -
11.02.2019 14:00:00 13,0 3,0 35 19 NO - 10 -
11.02.2019 13:00:00 13,4 2,2 28 15 ONO 1019,3 10 -

tt = Temperatura
td = dewpoint
ff = velocità del vento
dd = direzione del vento
ppp = reduced air pressure
vv = visibility
rr = precipitazioni

Stazioni seguenti

WeatherPro
AMSI
MeteoEarth